シューメーカー-レヴィ第2彗星

137P/Shoemaker-Levy 2 (2009)

English version
Home page
Total 6,336 html files since Dec. 4, 1995
Updated on April 12, 2008

---------------------------------------------------------------------

・ プロフィール

・ 軌道要素

The following orbital elements are taken from MPC 56803:

Epoch 2009 May 9.0 TT = JDT 2454960.5
T 2009 May 13.5673 TT                                   MPC
q   1.915283             (2000.0)            P               Q
n   0.1032020      Peri.  140.8114      +0.9687674      -0.2385562
a   4.501363       Node   233.1212      +0.2008918      +0.9150454
e   0.574510       Incl.    4.8537      +0.1453695      +0.3252428
P   9.55
From 87 observations 1990-2001, mean residual 0".6.

・ 光度変化

        m1 = 15.0 + 5 logΔ + 5.0 log r

---------------------------------------------------------------------

軌道要素はMPCのEphemerides and Orbital Elementsに掲載されたものです。
光度グラフはComet for Windowsで作成したものです。

---------------------------------------------------------------------

Copyright(C) 1995-2008 Seiichi Yoshida (comet@aerith.net). All rights reserved.